Regional Weather Roundup
Issued by NWS

Home | Current Version | Previous Version | Text Only | Print | Product List | Glossary Off
Versions: 1 2 3 4 5 6 7 8 9 10 11 12 13 14 15 16 17 18 19 20 21 22 23 24 25 26 27 28 29 30 31 32 33 34 35 36 37 38 39 40 41 42 43 44 45 46 47 48 49 50

000
ASUS43 KBIS 080202
RWRND

NORTH DAKOTA REGIONAL WEATHER ROUNDUP
NATIONAL WEATHER SERVICE BISMARCK ND
800 PM CST WED DEC 07 2016

NOTE: "FAIR" INDICATES FEW OR NO CLOUDS BELOW 12,000 FEET WITH NO
SIGNIFICANT WEATHER AND/OR OBSTRUCTIONS TO VISIBILITY.


NDZ001>003-009>011-017-080300-
NORTHWEST NORTH DAKOTA

CITY           SKY/WX    TMP DP  RH WIND       PRES   REMARKS
WILLISTON      CLOUDY     2  -5  72 W13       30.55R WCI -15
MINOT          LGT SNOW   6   1  80 W31G40    30.38R WCI -18
MINOT AFB      DRIZZLE    4   0  81 NW30      30.38R WCI -20
$$

NDZ018>021-031>035-040>046-080300-
SOUTHWEST NORTH DAKOTA

CITY           SKY/WX    TMP DP  RH WIND       PRES   REMARKS
BISMARCK       LGT SNOW   4  -1  80 NW15G29   30.42R WCI -14
DICKINSON      CLOUDY    -1  -7  75 W26G33    30.40R WCI -26
GARRISON         N/A      3  -1  83 NW28G36   30.39R WCI -21
HETTINGER ARPT CLEAR      0  -6  76 W23       30.43R WCI -23
$$

NDZ004>008-012>016-024-026-027-054-080300-
NORTHEAST NORTH DAKOTA

CITY           SKY/WX    TMP DP  RH WIND       PRES   REMARKS
GRAND FORKS    LGT SNOW  20  17  88 NW23G30   30.15R BLWGSNOWWCI   3
GRND FRKS AFB  LGT SNOW  19  15  82 N21G30    30.17R WCI   3
DEVILS LAKE    LGT SNOW  12   9  85 NW24      30.23R FOG     WCI  -8
$$

NDZ022-023-025-028>030-036>039-047>053-080300-
SOUTHEAST NORTH DAKOTA

CITY           SKY/WX    TMP DP  RH WIND       PRES   REMARKS
FARGO          LGT SNOW  17  12  80 NW22G29   30.16R WCI   0
JAMESTOWN      LGT SNOW   8   4  83 NW31G38   30.25R VSB 1   WCI -15
$$





USA.gov is the U.S. government's official web portal to all federal, state and local government web resources and services.